Weather in Ubliska

Russia / Pskov Oblast     57°13′20″N   29°45′36″E
temp.,
°C
wind,
m/s
gust,
m/s
humid.,
%
clouds,
%
prec.,
mm/h
press.,
hPa
HPBL,
m
6 may, thu
thu600:00+6sse2898100 0.1 1000200
03:00+7nne2298100 4.2 99836
06:00+6ne1399100 1.4 995111
09:00+6nw4898100 6.9 993464
12:00+8w4788100 5.6 994858
15:00+9sw61180100 6.2 9961518
18:00+7wsw7138781 0.7 9981204
21:00+5sw5128499 0.9 10001280
7 may, fri
fri700:00+5sw61288100 0.3 10011084
03:00+5sw61382100 0.3 10021272
06:00+4sw51384100 0.0 10031046
09:00+7sw6116880 0.0 10041327
12:00+9sw5959100 0.1 10051726
15:00+10sw5758100 0.3 10051686
18:00+11sw2552100 0.1 10051674
21:00+7ese2476100 0.1 100468
8 may, sat
sat800:00+6ne2495100 1.6 1002127
03:00+6ne1498100 5.6 1000354
06:00+5wnw1298100 0.1 999234
09:00+4nw4697100 0.3 1000570
12:00+3wnw41097100 0.3 1001685
15:00+4wnw61198100 3.0 1003822
18:00+4wnw51297100 2.0 1005797
21:00+4wnw41093100 2.0 1007767
9 may, sun
sun900:00+3w41393100 0.0 1010637
03:00+1w514925 0.0 1013481
06:000w413925 0.0 1016425
09:00+6w48713 0.0 1018677
12:00+10wsw464433 0.0 10191633
15:00+12wsw4636100 0.0 10202030
18:00+12ssw375096 0.0 10201905
21:00+6ssw247914 0.1 102264
10 may, mon
mon1000:00+4ssw21084100 0.0 1022231
03:00+5ssw3118078 0.0 1023339
06:00+7s41486100 0.3 1022603
09:00+10ssw41175100 0.3 1023529
12:00+16ssw47575 0.0 1023929
15:00+19sw585049 0.0 10231427
18:00+18ssw4761100 0.0 10231143
21:00+12s31183100 0.0 1024246